sat.trackr.live / text

‹ back to catalog

STARLINK-2428

NORAD 48099 · 2021-027H

PAYLOAD ACTIVE UNKNOWN

§ Identity

Operator
Country
US
Launch date
2021-04-07
Launch site
AFETR
Launch vehicle
Mass (kg)
RCS (m²)

Purposes: comms

External: N2YO · Heavens-Above · Gunter

§ Orbital elements

Epoch: 2026-05-25T01:52:14.513664Z

Period
94.01 min
Inclination
53.1583°
Eccentricity
0.0001481
Mean motion
15.31701394 rev/d
Perigee alt
469.7 km
Apogee alt
471.8 km
Semi-major
6,848.9 km
B*
1.6967e-5
RAAN
172.5122°
Arg perigee
68.5102°
Mean anomaly
291.6058°
Rev number
28,417

§ Raw data

STARLINK-24281 48099U 21027H   26145.07794576  .00000161  00000+0  16967-4 0  99952 48099  53.1583 172.5122 0001481  68.5102 291.6058 15.31701394284170

JSON: /api/v1/satellites/48099 · /tle

For live sub-satellite position, see the globe view (requires WebGL).

§ Visibility from observer

Set your observer location to see the next 7 days of passes ≥ 10°. The values pass through the URL so the page stays shareable.

No JS? Fill the form by hand. The geolocation button needs JavaScript.